Flag for Congo Weather past 2 weeks in Brazzaville, Congo

Now
72 °F

Passing clouds.


Feels Like: 67 °F
Forecast: 73 / 87 °F
Wind: 2 mph from North

Location: Brazzaville / Maya-Maya

Current Time: Mar 7, 2015 at 2:03:31 AM

Latest Report: Mar 7, 2015 at 1:00 AM


Visibility: N/A

Pressure: 29.95 "Hg

Humidity: 94%

Dew point: 70 °F

Location of BrazzavilleLocation

Historic Weather in Brazzaville — Graph

°F

Brazzaville temperature yesterday

Maximum temperature yesterday: 77 °F (at 12:00 AM)
Minimum temperature yesterday: 70 °F (at 10:00 AM)
Average temperature yesterday: 73 °F

Past Weeks' High & Low Weather Summary

 TemperatureHumidityPressure
High93 °F (Mar 1, 3:00 PM)100% (Feb 20, 7:58 AM)30.07 "Hg (Feb 20, 7:58 AM)
Low68 °F (Feb 20, 7:58 AM)46% (Mar 4, 4:00 PM)29.74 "Hg (Feb 21, 4:00 PM)
Average78 °F80%29.89 "Hg
* Reported Feb 20 1:00 AM — Mar 7 1:00 AM, Brazzaville, Weather by CustomWeather, © 2015

Note: Actual official high and low records may vary slightly from our data, if they occured in-between our weather recording intervals... More about our weather records

Advertising

Brazzaville weather history for previous 24 hours

 ConditionsComfort  
Time TempWeatherWind HumidityBarometerVisibility
1:00 AM
Sat, Mar 7
72 °FPassing clouds.2 mph94%29.95 "HgN/A
12:00 AM72 °FPassing clouds.2 mph94%29.95 "HgN/A
11:00 PM
Fri, Mar 6
72 °FPassing clouds.3 mph94%29.95 "Hg5 mi
10:00 PM72 °FPassing clouds.No wind94%29.95 "Hg5 mi
9:00 PM72 °FPassing clouds.5 mph94%29.92 "Hg6 mi
8:00 PM72 °FPassing clouds.5 mph94%29.89 "Hg6 mi
7:00 PM73 °FPassing clouds.5 mph89%29.86 "Hg6 mi
6:00 PM73 °FScattered clouds.7 mph89%29.80 "Hg6 mi
5:00 PM73 °FLight rain. Scattered clouds.5 mph89%29.83 "Hg6 mi
3:00 PM72 °FLight rain. Scattered clouds.2 mph88%29.92 "Hg4 mi
2:00 PM72 °FThunderstorms. Scattered clouds.3 mph94%29.98 "Hg4 mi
1:00 PM72 °FThunderstorms. Overcast.2 mph94%30.04 "Hg4 mi
12:00 PM70 °FThunderstorms. More clouds than sun.3 mph100%30.07 "Hg4 mi
11:47 AM70 °FThunderstorms. More clouds than sun.3 mph100%30.07 "Hg4 mi
11:00 AM70 °FThunderstorms. More clouds than sun.9 mph94%30.07 "Hg2 mi
10:58 AM70 °FThunderstorms. More clouds than sun.9 mph94%30.07 "Hg2 mi
10:00 AM70 °FThunderstorms. Mostly cloudy.26 mph100%30.07 "Hg1 mi
9:45 AM72 °FThunderstorms. Mostly cloudy.22 mph94%30.04 "Hg1 mi
9:00 AM75 °FThunderstorms. Scattered clouds.1 mph89%30.01 "Hg5 mi
8:54 AM75 °FThunderstorms. Scattered clouds.1 mph89%30.01 "Hg5 mi
8:00 AM77 °FLight rain. Scattered clouds.2 mph83%29.98 "Hg5 mi
7:00 AM75 °FScattered clouds.2 mph89%29.95 "Hg6 mi
6:00 AM75 °FPassing clouds.3 mph89%29.92 "Hg6 mi
5:00 AM75 °FPassing clouds.3 mph89%29.92 "Hg6 mi
3:00 AM77 °FPassing clouds.5 mph83%29.89 "HgN/A
2:00 AM77 °FPassing clouds.2 mph83%29.89 "HgN/A
Weather by CustomWeather, © 2015

See weather overviewHow to use our weather pages